Location: Radomski Observatory
(40.2854°N, 79.5145°W)
Time: 06:58:52
(UTC-04:00)

Cosmos 1072 Rocket - Visible Passes

Search period start: 30 August 2016 00:00
Search period end: 09 September 2016 00:00
Orbit: 948 x 1009 km, 82.9° (Epoch: 28 August)

Date Brightness Start Highest point End Pass type
(mag) Time Alt. Az. Time Alt. Az. Time Alt. Az.
30 Aug 6.1 00:26:45 28° NW 00:26:45 28° NW 00:30:57 10° NNW visible
30 Aug 5.1 23:08:05 48° NNE 23:08:05 48° NNE 23:12:28 10° N visible
31 Aug 6.7 00:52:48 17° WNW 00:52:48 17° WNW 00:56:10 10° NNW visible
31 Aug 6.1 21:49:24 17° ENE 21:49:24 17° ENE 21:51:55 10° NE visible
31 Aug 5.2 23:34:07 49° NNW 23:34:07 49° NNW 23:38:47 10° N visible
01 Sep 5.5 22:15:25 30° ENE 22:15:25 30° ENE 22:19:19 10° NNE visible
02 Sep 5.9 00:00:07 32° WNW 00:00:07 32° WNW 00:04:45 10° N visible
02 Sep 4.9 22:41:24 51° NE 22:41:24 51° NE 22:46:06 10° NNE visible
03 Sep 6.6 00:26:06 18° WNW 00:26:06 18° WNW 00:30:07 10° NNW visible
03 Sep 6.1 21:22:38 16° ENE 21:22:38 16° ENE 21:25:17 10° NE visible
03 Sep 4.9 23:07:21 59° NNW 23:07:21 59° NNW 23:12:29 10° N visible
04 Sep 5.4 21:48:33 30° ENE 21:48:33 30° ENE 21:52:52 10° NNE visible
04 Sep 5.7 23:33:16 37° WNW 23:33:16 37° WNW 23:38:31 10° N visible
05 Sep 4.6 22:14:26 55° ENE 22:14:26 55° ENE 22:19:43 10° NNE visible
05 Sep 6.4 23:59:09 20° WNW 23:59:33 20° WNW 00:04:01 10° NNW visible
06 Sep 6.0 20:55:34 15° ENE 20:55:34 15° ENE 20:58:35 10° NE visible
06 Sep 4.5 22:40:16 75° WNW 22:40:16 75° WNW 22:46:11 10° N visible
07 Sep 7.1 00:25:28 10° WNW 00:26:30 10° WNW 00:27:33 10° NW visible
07 Sep 5.3 21:21:21 28° E 21:21:21 28° E 21:26:25 10° NNE visible
07 Sep 5.4 23:06:03 40° W 23:06:30 41° WNW 23:12:17 10° N visible
08 Sep 4.5 21:47:03 52° ESE 21:47:25 53° E 21:53:21 10° NNE visible
08 Sep 6.4 23:31:45 21° W 23:33:10 23° WNW 23:37:54 10° NNW visible
